SCP
0 0 0 0 0 1 1 1 0 0 0 0 0 0 0 0 0 0 0 0 0 0 0 0 0 0 0 0 0 0 0 0 0 0 0 0 0 0 0 0 0 0 0
0 0 0 0 0 1 1 1 0 0 0 0 0 0 0 0 0 0 0 0 0 0 0 0 0 0 0 0 0 0 0 0 0 0 0 0 0 0 0 0 0 0 0
0 0 0 0 0 0 0 0 0 0 0 0 0 0 0 0 0 0 0 0 0 0 0 0 0 0 0 0 0 1 1 0 0 0 0 0 0 0 0 0 0 0 0
0 0 1 1 1 1 1 1 0 0 0 0 0 0 0 0 0 0 0 0 0 0 0 1 1 1 1 1 1 1 1 1 1 1 1 0 0 0 0 0 0 0 0
1 1 1 1 1 1 1 1 1 1 1 1 1 0 0 0 0 0 0 0 0 0 1 1 1 1 1 1 1 1 1 1 1 1 1 1 1 1 0 0 0 0 0
1 1 1 1 1 1 1 1 1 1 1 1 1 1 0 0 1 1 1 1 0 0 1 1 1 1 1 1 1 1 1 1 1 1 1 1 1 1 1 0 0 0 0
0 0 1 1 1 1 1 1 1 1 1 1 1 1 0 0 1 1 1 1 1 1 1 1 1 1 1 1 1 1 1 1 1 1 1 1 1 1 1 1 0 0 0
0 0 0 0 1 1 1 1 0 0 1 1 1 1 1 1 1 1 1 1 1 1 1 1 1 2 2 2 1 1 1 1 1 1 1 1 1 1 1 1 1 0 0
1 0 0 0 0 0 1 1 1 0 0 1 1 1 1 1 1 1 1 1 1 1 1 1 1 2 2 2 1 1 1 1 1 1 1 1 1 1 1 1 1 1 1
1 1 0 0 0 1 1 1 1 1 1 1 1 1 1 1 1 1 1 1 1 1 1 1 2 2 2 2 1 1 1 1 1 1 1 1 1 1 1 1 1 1 1
1 1 1 0 0 1 1 1 1 1 1 1 1 1 1 2 2 2 2 2 2 2 2 2 2 2 1 1 1 1 1 1 1 1 1 1 1 1 1 1 1 1 1
2 1 1 1 1 1 1 1 1 1 1 1 1 1 1 2 3 2 2 2 2 1 2 2 2 1 1 1 1 1 1 1 1 1 1 1 1 2 1 1 1 1 1
1 1 1 1 1 1 1 1 1 1 1 1 1 2 2 2 2 2 2 1 1 1 1 1 1 1 1 1 1 1 1 1 1 1 1 1 1 1 2 1 1 1 1
1 1 1 1 1 1 1 1 1 1 1 1 2 2 2 2 2 2 2 1 1 1 1 1 1 1 2 2 1 1 1 1 1 0 0 0 1 1 1 1 1 1 1
1 1 1 2 1 1 1 1 1 1 1 2 2 2 2 2 2 2 1 1 1 1 1 1 1 2 2 2 1 1 1 1 1 0 0 0 0 0 1 1 1 1 1
2 2 2 2 1 1 1 1 1 1 1 1 1 1 1 2 2 2 2 2 2 2 1 2 2 2 1 1 1 1 1 1 1 0 0 0 0 0 0 0 0 0 0
2 2 2 2 2 1 1 1 1 1 1 1 1 1 1 1 1 2 2 2 2 2 2 2 2 1 1 1 1 1 1 1 1 0 0 0 0 0 0 0 0 0 0
2 2 2 2 2 1 1 1 1 1 1 1 1 1 1 1 1 1 1 2 2 2 2 2 1 1 1 1 1 1 1 1 1 0 0 0 0 0 0 0 0 0 0
3 3 4 3 2 2 1 1 1 1 1 1 1 1 1 1 1 1 1 1 1 1 1 1 1 1 1 1 1 1 1 1 1 1 0 0 0 0 0 0 0 0 0
4 4 4 4 2 2 2 2 2 1 1 2 2 1 1 1 1 1 1 1 1 1 1 1 1 1 1 1 1 1 1 1 1 1 1 0 0 0 0 0 0 0 0
5 4 4 3 3 2 2 2 2 2 2 2 2 2 1 1 1 1 1 1 1 1 1 1 1 1 1 1 1 1 1 1 1 1 1 1 0 0 0 0 0 0 0
4 4 4 3 3 2 2 1 1 2 2 2 2 1 1 1 0 0 0 0 0 1 1 1 1 1 1 1 1 1 1 1 1 1 1 1 1 0 0 0 0 0 0
5 4 4 4 3 2 1 0 1 1 2 2 1 1 1 0 0 0 0 0 0 0 0 0 1 1 1 1 1 1 1 1 1 1 1 1 1 1 1 0 0 0 0
6 5 4 4 4 3 1 0 0 1 1 1 1 1 0 0 0 0 0 0 0 0 0 0 1 1 1 1 1 1 1 1 1 1 1 1 1 1 1 0 0 0 0
7 6 5 4 4 3 1 0 0 0 1 1 0 0 0 0 0 0 0 0 0 0 0 0 0 0 0 0 1 1 1 1 1 1 1 1 1 0 0 0 0 0 0
7 6 5 4 4 3 1 0 0 0 1 1 0 0 0 0 0 0 0 0 0 0 0 0 0 0 0 0 0 0 1 1 1 1 1 1 0 0 0 0 0 0 0
Wind_Speed
1 1 1 0 1 1 3 1 0 1 1 2 2 2 1 2 2 2 6 9 7 7 8 8 8 8 8 8 8 8 8 8 8 8 8 8 8 8 8 8 8 8 8
1 1 2 2 1 2 0 1 1 1 1 1 1 1 2 1 2 2 3 8 9 8 8 9 9 9 10 10 10 9 9 9 9 9 9 9 9 9 9 9 9 8 8
2 2 1 2 2 1 2 2 1 2 2 2 2 2 2 2 2 3 3 3 7 10 9 9 9 9 10 10 10 10 10 10 10 10 10 10 10 10 10 9 10 9 9
3 3 2 2 2 2 2 2 3 2 2 2 2 2 2 3 4 4 4 4 4 5 10 11 10 9 10 10 11 11 11 11 11 11 11 11 11 10 10 10 10 10 10
4 4 3 2 3 3 3 4 2 3 2 3 3 3 4 3 4 5 5 5 5 5 5 10 12 11 11 11 11 11 11 11 11 11 12 12 12 11 11 11 11 11 11
4 4 4 3 4 3 3 3 2 3 3 3 4 3 4 4 4 4 5 5 5 6 6 5 7 10 13 11 11 11 12 12 12 12 12 12 12 12 12 12 12 11 11
3 4 4 2 3 3 3 4 4 4 4 3 3 4 4 5 4 4 5 4 5 5 5 5 5 4 6 13 12 11 11 12 12 12 12 13 13 12 12 13 12 12 12
3 4 4 3 3 3 4 4 4 4 4 3 3 4 3 3 4 4 4 4 5 4 5 6 5 5 5 4 7 11 12 12 12 12 12 12 12 12 12 13 13 13 13
3 3 3 4 3 4 4 4 5 5 4 4 3 3 3 2 2 3 4 3 3 3 4 4 5 6 6 5 4 7 10 9 10 11 11 11 10 11 11 12 13 13 12
3 3 4 4 4 4 4 6 4 4 5 4 3 4 5 4 3 2 2 3 3 4 4 3 3 4 5 4 3 1 4 6 7 8 8 8 8 9 10 11 12 12 13
2 3 3 3 4 4 4 4 3 5 4 4 4 4 4 4 6 4 4 3 2 3 2 3 3 3 3 3 3 3 3 4 5 7 7 8 8 9 10 10 11 11 12
1 1 2 3 3 3 3 4 4 5 5 5 4 4 4 4 4 4 4 4 3 2 2 2 3 3 3 3 2 1 3 3 3 5 6 6 8 8 9 9 10 11 11
1 1 1 1 2 2 2 3 3 4 4 4 4 3 4 4 3 3 4 4 3 3 2 2 2 2 3 2 1 2 2 1 2 2 3 4 5 5 6 6 7 8 9
1 0 0 1 1 2 2 1 2 2 2 3 3 3 3 3 3 3 3 3 3 3 2 2 0 1 1 0 2 0 1 2 2 1 1 1 1 2 3 3 4 3 4
0 1 1 1 1 1 2 2 1 2 1 2 2 2 2 3 3 3 2 3 3 3 2 1 1 2 2 2 2 2 2 5 5 4 3 3 2 2 2 1 1 2 2
2 2 2 2 2 2 2 2 1 2 2 2 2 3 3 2 2 2 2 3 2 2 2 1 2 2 2 2 4 3 3 7 7 6 5 5 5 5 5 4 3 3 4
3 3 3 3 3 3 3 2 2 2 2 2 3 3 3 3 3 2 2 2 1 1 1 1 2 2 3 3 3 3 2 3 4 8 8 7 7 7 6 6 6 5 5
3 3 3 3 4 4 4 3 3 3 3 3 4 3 3 3 3 3 2 1 1 1 1 1 1 2 3 3 3 2 2 3 4 8 9 8 8 7 7 7 8 8 7
4 4 4 4 4 4 4 4 4 4 4 4 4 4 4 4 3 3 3 2 2 2 1 2 2 2 2 3 3 3 4 3 3 6 8 8 9 8 8 8 8 8 8
4 5 4 5 5 5 5 4 4 4 4 5 5 5 6 6 5 4 3 3 3 2 3 3 3 3 3 3 2 2 3 3 4 4 5 6 7 8 9 9 10 9 8
6 5 5 6 6 5 6 5 4 5 5 5 6 6 7 9 11 8 6 5 4 3 2 3 3 3 3 2 2 2 3 3 4 3 3 4 4 4 5 8 10 9 8
6 6 6 6 7 7 8 9 5 5 5 6 6 5 6 8 10 11 12 12 10 6 4 3 3 4 3 3 2 2 2 2 2 3 3 4 4 4 5 6 9 9 8
7 7 7 7 8 8 8 8 7 5 6 6 6 5 5 7 6 7 8 9 11 11 8 5 5 4 3 3 2 2 3 3 3 2 2 4 4 5 5 7 10 9 8
6 6 6 7 7 8 7 6 4 6 7 7 7 6 7 7 8 6 7 8 8 8 8 6 6 5 5 4 3 2 3 3 3 4 2 2 3 4 4 6 9 9 8
6 6 6 6 7 7 7 6 4 5 6 8 8 9 8 8 9 7 5 6 7 7 9 9 8 6 7 6 5 2 2 2 3 4 3 2 2 3 3 4 6 7 7
6 6 6 6 6 7 7 7 6 4 6 6 7 8 11 9 8 8 5 5 6 5 5 6 6 5 6 6 5 5 4 2 2 3 3 1 1 1 2 3 3 3 3
Wind_Direction
137 121 111 154 221 168 172 191 182 115 183 178 178 159 135 124 131 140 131 157 177 188 191 191 191 191 192 193 195 196 197 198 193 190 193 196 196 195 194 193 193 192 191
152 189 183 211 226 221 203 217 180 195 222 202 211 192 221 195 157 192 168 163 183 195 202 203 201 200 201 202 204 204 207 208 205 202 203 205 206 206 206 207 206 205 203
200 229 222 216 216 221 203 222 222 223 219 209 208 212 220 243 216 207 211 195 179 187 198 205 208 209 209 209 209 210 213 214 212 211 211 211 213 213 215 216 213 213 212
231 237 236 230 214 224 222 216 234 235 230 237 234 234 227 215 222 218 213 212 211 189 186 197 208 213 215 217 217 217 218 218 218 217 217 217 219 217 217 218 218 218 217
229 235 244 243 240 236 235 246 198 252 253 256 242 221 231 228 222 220 217 221 215 218 203 179 199 213 219 223 225 224 225 221 220 220 221 222 223 221 219 221 221 221 222
224 239 235 226 245 244 245 252 257 249 260 257 264 251 240 229 227 222 224 217 220 220 222 205 198 205 211 220 226 229 231 226 224 223 223 223 225 224 222 222 222 224 225
229 240 256 221 238 238 254 253 254 243 247 253 263 253 236 227 225 222 229 228 221 224 226 220 229 228 203 206 218 227 233 233 229 226 226 226 226 227 224 223 223 225 227
235 234 243 245 233 243 248 257 254 262 259 238 261 272 257 217 214 218 217 221 232 227 228 223 227 230 249 223 199 213 227 233 235 232 229 227 227 227 225 226 226 228 230
227 255 244 254 250 249 242 249 250 247 259 256 249 260 274 270 269 204 210 223 233 244 244 235 224 227 233 240 235 204 212 224 234 236 234 230 228 227 226 226 228 228 228
235 234 236 242 252 258 254 250 239 252 253 255 246 244 261 292 281 266 225 213 216 234 248 255 246 232 232 234 231 242 200 215 227 235 238 236 230 230 229 230 233 233 231
238 241 237 242 249 259 262 269 272 261 253 256 256 255 252 249 247 252 259 250 238 239 238 250 256 258 255 242 239 222 182 209 229 236 239 242 241 237 234 236 238 238 238
230 247 249 255 257 262 255 251 253 250 259 263 265 262 258 259 255 254 261 258 258 259 249 255 259 258 254 248 235 129 154 190 224 238 245 249 249 246 243 241 242 242 244
223 218 272 274 285 281 272 267 253 264 261 265 267 270 270 270 283 268 260 264 265 265 251 247 255 258 259 249 191 118 136 163 203 236 254 259 259 257 250 247 250 250 247
299 16 282 288 299 302 296 288 272 259 271 277 281 288 285 284 283 272 265 267 269 260 242 253 270 293 298 295 66 133 105 104 116 120 232 244 273 274 257 244 235 236 245
10 70 84 60 20 359 333 317 326 324 330 306 304 303 298 306 299 292 280 261 260 272 276 319 3 15 27 52 55 69 60 74 86 88 80 70 57 43 31 45 106 142 144
40 52 60 57 47 37 26 11 5 18 12 5 352 355 337 333 329 312 292 273 255 260 280 353 17 21 40 53 70 74 79 83 78 81 77 76 74 72 66 63 71 93 97
69 67 64 62 54 50 44 36 25 24 23 18 2 2 356 336 328 320 308 297 285 247 221 0 36 61 61 63 64 67 77 82 82 88 86 78 77 75 72 69 69 72 79
77 72 69 66 58 51 47 40 35 32 27 19 9 4 358 354 352 337 340 344 7 52 143 111 53 65 60 69 68 61 65 75 81 89 89 82 78 74 73 75 76 74 71
79 73 68 67 60 55 55 51 47 44 39 34 26 22 16 15 11 13 3 21 38 73 91 109 91 77 69 71 77 76 69 58 75 94 96 89 81 79 77 77 77 74 71
83 75 71 67 65 62 59 57 61 60 55 51 46 42 35 31 23 20 36 39 43 65 81 94 90 85 74 59 53 68 76 64 59 66 71 79 86 88 83 79 75 72 70
85 80 77 72 67 64 49 47 67 68 63 65 61 59 58 53 46 37 36 40 44 50 70 78 81 79 67 50 38 36 69 80 68 45 65 68 74 70 78 82 77 71 72
84 82 78 75 69 61 42 32 33 74 69 67 64 64 75 67 66 64 58 51 42 41 42 47 65 64 52 36 34 37 56 62 67 38 44 58 57 61 61 66 66 69 69
91 86 83 80 78 65 48 41 25 61 72 66 63 58 61 64 64 73 81 77 62 50 39 37 55 46 51 39 38 67 59 51 52 56 54 63 55 63 73 77 74 71 71
94 90 86 85 83 70 50 41 24 77 74 71 66 60 62 60 45 39 69 72 66 55 47 48 52 45 47 40 38 72 90 104 99 76 50 79 69 68 75 86 85 79 78
102 98 90 86 86 79 49 28 3 92 86 77 70 62 58 66 31 13 68 77 80 86 84 77 67 70 66 48 18 44 76 93 94 85 58 70 94 95 86 89 101 102 90
110 106 96 89 87 82 53 23 348 92 94 95 90 82 62 48 28 11 62 73 74 67 73 91 93 96 81 77 54 29 20 37 73 86 56 26 102 120 109 100 101 120 116